DW2150 Weather Reports


time (UTC)temp
C
wind
direction
speed
KPH
gust
KPH
rain 1hr
cm
rain 24hr
cm
rain mn
cm
humidity
%
barometer
mb
20260902030454 26 244 0.0 0.0 0.00 0.03 0.03 90 1013.5
20260902025920 26 244 0.0 0.0 0.00 0.03 0.03 90 1013.5
20260902025417 26 244 0.0 0.0 0.00 0.03 0.03 90 1013.5
20260902024914 26 244 0.0 0.0 0.00 0.03 0.03 90 1013.5
20260902024412 26 244 0.0 0.0 0.00 0.03 0.03 90 1013.5
20260902023837 26 244 0.0 0.0 0.00 0.03 0.03 90 1013.2
20260902023334 26 244 0.0 0.0 0.00 0.03 0.03 90 1013.2
20260902022831 26 244 0.0 0.0 0.00 0.03 0.03 90 1013.2
20260902022328 26 244 0.0 0.0 0.00 0.03 0.03 89 1013.2
20260902021809 26 244 0.0 0.0 0.00 0.03 0.03 89 1013.2
20260902021307 26 244 0.0 0.0 0.00 0.03 0.03 89 1012.9
20260902020713 26 244 0.0 0.0 0.00 0.03 0.03 89 1012.9
20260902020104 26 244 0.0 0.0 0.00 0.03 0.03 89 1012.9
20260902015518 26 244 0.0 0.0 0.00 0.03 0.03 89 1012.9
20260902014944 26 244 0.0 0.0 0.00 0.03 0.03 88 1012.9
20260902014410 26 244 0.0 0.0 0.00 0.03 0.03 88 1012.9
20260902013907 26 244 0.0 0.0 0.00 0.03 0.03 88 1012.5
20260902013404 27 244 0.0 0.0 0.00 0.03 0.03 88 1012.5
20260902012900 27 244 0.0 0.0 0.00 0.03 0.03 88 1012.5
20260902012326 27 244 0.0 0.0 0.00 0.03 0.03 87 1012.5
20260902011823 27 244 0.0 0.0 0.00 0.03 0.03 87 1012.5
20260902010815 27 244 0.0 3.2 0.00 0.03 0.03 87 1012.2
20260902010311 27 244 0.0 6.4 0.00 0.03 0.03 86 1012.5
20260902005646 27 244 0.0 6.4 0.00 0.03 0.03 86 1012.2
20260902005143 27 244 1.6 6.4 0.00 0.03 0.03 86 1012.5
20260902004639 27 263 3.2 8.0 0.00 0.03 0.03 85 1012.5
20260902004137 27 252 1.6 9.7 0.00 0.03 0.03 85 1012.5
20260902003634 27 252 3.2 9.7 0.00 0.03 0.03 85 1012.5
20260902003131 27 302 1.6 9.7 0.00 0.03 0.03 84 1012.5
20260902002628 28 248 6.4 9.7 0.00 0.03 0.03 84 1012.5
20260902002124 28 243 1.6 8.0 0.00 0.03 0.03 85 1012.5
20260902001621 28 234 3.2 8.0 0.00 0.03 0.03 85 1012.5
20260902001118 28 260 3.2 8.0 0.00 0.03 0.03 85 1012.9
20260902000615 28 268 3.2 8.0 0.00 0.03 0.03 84 1012.9
20260902000113 28 254 1.6 8.0 0.00 0.03 0.03 85 1012.9
20260901235542 28 254 3.2 9.7 0.00 0.03 0.03 85 1012.5
20260901235021 28 264 3.2 9.7 0.00 0.03 0.03 84 1012.5
20260901234518 28 247 3.2 9.7 0.00 0.03 0.03 84 1012.9
20260901233956 28 255 3.2 9.7 0.00 0.03 0.03 85 1012.9
20260901233453 28 250 4.8 8.0 0.00 0.03 0.03 86 1012.5
20260901232950 28 290 3.2 8.0 0.00 0.03 0.03 86 1012.5
20260901232447 28 266 3.2 8.0 0.00 0.03 0.03 86 1012.9
20260901231926 28 248 3.2 8.0 0.00 0.03 0.03 86 1012.9
20260901231423 28 298 1.6 6.4 0.00 0.03 0.03 86 1012.9
20260901230920 28 262 0.0 4.8 0.00 0.03 0.03 87 1012.9
20260901230241 28 263 0.0 4.8 0.00 0.03 0.03 87 1012.9
20260901225706 28 300 3.2 6.4 0.00 0.03 0.03 87 1012.9
20260901225202 28 257 1.6 6.4 0.00 0.03 0.03 86 1013.2
20260901224700 28 258 3.2 6.4 0.00 0.03 0.03 86 1013.2
20260901224157 28 57 1.6 9.7 0.00 0.03 0.03 86 1013.2
20260901223653 28 78 1.6 9.7 0.00 0.03 0.03 85 1013.2
20260901223150 29 307 1.6 9.7 0.00 0.03 0.03 85 1013.2
20260901222647 29 265 3.2 6.4 0.00 0.03 0.03 85 1012.9
20260901222144 29 273 3.2 11.3 0.00 0.03 0.03 86 1012.9
20260901221641 29 272 1.6 11.3 0.00 0.03 0.03 86 1012.9
20260901221138 29 272 3.2 11.3 0.00 0.03 0.03 86 1012.9
20260901220635 29 252 4.8 11.3 0.00 0.03 0.03 85 1012.9
20260901220113 29 254 3.2 9.7 0.00 0.03 0.03 85 1012.9
20260901215547 29 257 4.8 9.7 0.00 0.03 0.03 85 1012.9
20260901215044 29 251 4.8 9.7 0.00 0.03 0.03 85 1012.9
20260901214541 29 255 4.8 11.3 0.00 0.03 0.03 85 1012.9
20260901214007 29 253 4.8 11.3 0.00 0.03 0.03 84 1013.2
20260901213502 29 250 4.8 11.3 0.00 0.03 0.03 84 1013.2
20260901212959 29 249 6.4 11.3 0.00 0.03 0.03 83 1013.2
20260901212456 29 255 3.2 9.7 0.00 0.03 0.03 83 1013.5
20260901211953 29 255 3.2 9.7 0.00 0.03 0.03 83 1013.5
20260901211450 29 286 1.6 9.7 0.00 0.03 0.03 83 1013.5
20260901210947 29 269 3.2 9.7 0.00 0.03 0.03 83 1013.5
20260901210444 29 245 4.8 11.3 0.00 0.03 0.03 83 1013.5
20260901205910 29 255 4.8 11.3 0.00 0.03 0.03 84 1013.5
20260901205407 28 251 3.2 11.3 0.00 0.03 0.03 84 1013.5
20260901204904 28 251 4.8 11.3 0.00 0.03 0.03 83 1013.5
20260901204401 28 248 4.8 11.3 0.00 0.03 0.03 84 1013.5
20260901203827 28 249 4.8 11.3 0.00 0.03 0.03 84 1013.2
20260901203324 28 241 4.8 11.3 0.00 0.03 0.03 84 1013.2
20260901202822 28 244 4.8 11.3 0.00 0.03 0.03 85 1013.2
20260901202319 28 254 6.4 11.3 0.00 0.03 0.03 84 1013.2
20260901201714 28 255 4.8 11.3 0.00 0.03 0.03 85 1013.2
20260901201211 28 248 4.8 11.3 0.00 0.03 0.03 85 1013.2
20260901200709 28 245 4.8 11.3 0.00 0.03 0.03 85 1013.5
20260901200205 28 247 3.2 9.7 0.00 0.03 0.03 86 1013.5
20260901195702 28 264 4.8 6.4 0.03 0.03 0.03 85 1013.9
20260901195158 28 229 3.2 8.0 0.03 0.03 0.03 86 1013.9
20260901194655 28 269 3.2 8.0 0.03 0.03 0.03 86 1014.2
20260901194152 28 228 1.6 8.0 0.03 0.03 0.03 86 1014.2
20260901193650 28 255 3.2 8.0 0.03 0.03 0.03 86 1014.2
20260901193116 28 270 3.2 8.0 0.03 0.03 0.03 86 1014.2
20260901192613 28 261 3.2 8.0 0.03 0.03 0.03 87 1014.2
20260901192051 28 293 3.2 8.0 0.03 0.03 0.03 87 1014.2
20260901191548 28 257 3.2 8.0 0.03 0.03 0.03 87 1014.2
20260901191045 28 250 3.2 8.0 0.03 0.03 0.03 88 1014.6
20260901190542 28 247 3.2 8.0 0.03 0.03 0.03 89 1014.6
20260901190039 28 246 0.0 8.0 0.00 0.00 0.00 89 1014.6
20260901185521 28 244 3.2 8.0 0.00 0.00 0.00 88 1014.9
20260901185019 28 236 0.0 6.4 0.00 0.00 0.00 88 1014.9
20260901184515 28 236 0.0 6.4 0.00 0.00 0.00 87 1014.9
20260901184012 28 295 1.6 6.4 0.00 0.00 0.00 87 1014.9
20260901183509 28 263 1.6 6.4 0.00 0.00 0.00 86 1014.9
20260901183006 28 336 1.6 6.4 0.00 0.00 0.00 85 1014.9
20260901182432 28 270 1.6 6.4 0.00 0.00 0.00 84 1014.9
20260901181929 28 280 3.2 8.0 0.00 0.00 0.00 85 1014.9
20260901181417 28 282 1.6 8.0 0.00 0.00 0.00 85 1014.9
20260901180914 28 279 1.6 8.0 0.00 0.00 0.00 84 1014.9
20260901180411 28 306 1.6 8.0 0.00 0.00 0.00 83 1014.9
20260901175854 28 251 3.2 6.4 0.00 0.00 0.00 83 1014.9
20260901175332 28 325 3.2 4.8 0.00 0.00 0.00 84 1014.9
20260901174740 28 191 3.2 6.4 0.00 0.00 0.00 84 1015.2
20260901174236 28 249 3.2 6.4 0.00 0.00 0.00 84 1015.2
20260901173714 28 256 3.2 8.0 0.00 0.00 0.00 84 1015.2
20260901173211 28 237 3.2 8.0 0.00 0.00 0.00 84 1015.2
20260901172708 28 253 1.6 8.0 0.00 0.00 0.00 85 1015.6
20260901172205 28 289 3.2 8.0 0.00 0.00 0.00 84 1015.6
20260901171644 28 277 1.6 6.4 0.00 0.00 0.00 85 1015.9
20260901171141 28 276 3.2 4.8 0.00 0.00 0.00 84 1015.9
20260901170638 28 55 1.6 4.8 0.00 0.00 0.00 84 1016.3
20260901170136 28 57 1.6 4.8 0.00 0.00 0.00 83 1016.3
20260901165611 28 349 1.6 9.7 0.00 0.00 0.00 84 1015.9
20260901165109 29 5 1.6 9.7 0.00 0.00 0.00 83 1016.3
20260901164606 29 45 1.6 9.7 0.00 0.00 0.00 83 1016.3
20260901164103 29 72 1.6 9.7 0.00 0.00 0.00 82 1016.3
20260901163600 29 259 1.6 12.9 0.00 0.00 0.00 82 1016.3
20260901163025 29 86 1.6 12.9 0.00 0.00 0.00 82 1016.3
20260901162522 29 28 3.2 12.9 0.00 0.00 0.00 82 1016.3
20260901162018 29 30 3.2 12.9 0.00 0.00 0.00 81 1016.3
20260901161515 30 40 3.2 12.9 0.00 0.00 0.00 81 1016.3
20260901161012 30 45 4.8 12.9 0.00 0.00 0.00 81 1016.3
20260901160431 30 13 4.8 12.9 0.00 0.00 0.00 81 1016.3
20260901155928 30 42 4.8 11.3 0.00 0.00 0.00 81 1016.3
20260901155425 30 52 3.2 8.0 0.00 0.00 0.00 81 1016.3
20260901154851 30 103 1.6 8.0 0.00 0.00 0.00 81 1015.9
20260901154348 30 54 3.2 8.0 0.00 0.00 0.00 81 1015.9
20260901153846 29 351 1.6 8.0 0.00 0.00 0.00 81 1015.9
20260901153343 29 21 3.2 6.4 0.00 0.00 0.00 82 1015.9
20260901152839 29 28 1.6 8.0 0.00 0.00 0.00 82 1015.6
20260901152337 29 76 1.6 8.0 0.00 0.00 0.00 82 1015.6
20260901151834 29 62 3.2 8.0 0.00 0.00 0.00 83 1015.6
20260901151312 29 224 3.2 8.0 0.00 0.00 0.00 84 1015.6
20260901150737 28 236 3.2 4.8 0.00 0.00 0.00 84 1015.6
20260901150216 28 113 1.6 4.8 0.00 0.00 0.00 85 1015.6
20260901145657 28 29 1.6 4.8 0.00 0.00 0.00 85 1015.9
20260901145153 28 155 1.6 3.2 0.00 0.00 0.00 85 1015.9
20260901144650 28 116 1.6 4.8 0.00 0.00 0.00 85 1015.6
20260901144147 28 195 1.6 4.8 0.00 0.00 0.00 86 1015.6
20260901143644 28 87 1.6 4.8 0.00 0.00 0.00 86 1015.6
20260901143141 28 273 1.6 4.8 0.00 0.00 0.00 86 1015.6
20260901142638 28 277 1.6 4.8 0.00 0.00 0.00 87 1015.9
20260901142134 28 331 3.2 4.8 0.00 0.00 0.00 87 1015.9
20260901141631 28 321 1.6 4.8 0.00 0.00 0.00 87 1015.9
20260901141128 28 274 1.6 4.8 0.00 0.00 0.00 87 1015.6
20260901140624 27 41 1.6 6.4 0.00 0.00 0.00 88 1015.9
20260901140059 27 227 1.6 6.4 0.00 0.00 0.00 88 1015.6
20260901135526 27 234 1.6 6.4 0.00 0.00 0.00 88 1015.6
20260901135004 27 233 1.6 4.8 0.00 0.00 0.00 89 1015.6
20260901134359 27 251 3.2 4.8 0.00 0.00 0.00 89 1015.6
20260901133855 27 259 3.2 3.2 0.00 0.00 0.00 89 1015.6
20260901133352 27 5 0.0 0.0 0.00 0.00 0.00 89 1015.6
20260901132849 27 5 0.0 0.0 0.00 0.00 0.00 89 1015.6
20260901132346 27 5 0.0 0.0 0.00 0.00 0.00 89 1015.6
20260901131824 27 335 0.0 0.0 0.00 0.00 0.00 90 1015.6
20260901131250 27 333 0.0 0.0 0.00 0.00 0.00 90 1015.6
20260901130748 27 333 0.0 0.0 0.00 0.00 0.00 90 1015.6
20260901130226 27 333 0.0 0.0 0.00 0.00 0.00 90 1015.6
20260901125629 27 333 0.0 0.0 0.00 0.00 0.00 90 1015.2
20260901125126 27 333 0.0 0.0 0.00 0.00 0.00 90 1015.2
20260901124552 27 333 0.0 1.6 0.00 0.00 0.00 90 1015.2
20260901124047 27 333 0.0 1.6 0.00 0.00 0.00 90 1015.2
20260901123525 27 333 0.0 1.6 0.00 0.00 0.00 90 1015.2
20260901123022 27 333 1.6 1.6 0.00 0.00 0.00 90 1015.2
20260901122519 27 333 0.0 1.6 0.00 0.00 0.00 90 1014.9
20260901122016 27 333 0.0 1.6 0.00 0.00 0.00 90 1014.9
20260901121513 27 333 1.6 1.6 0.00 0.00 0.00 91 1014.9
20260901121011 27 333 0.0 1.6 0.00 0.00 0.00 91 1014.9
20260901120508 27 333 0.0 1.6 0.00 0.00 0.00 91 1014.9
20260901115946 27 333 0.0 1.6 0.00 0.00 0.00 91 1014.6
20260901115443 27 333 1.6 1.6 0.00 0.00 0.00 91 1014.6
20260901114940 27 333 1.6 1.6 0.00 0.00 0.00 91 1014.6
20260901114437 27 332 1.6 1.6 0.00 0.00 0.00 91 1014.6
20260901113903 27 340 0.0 3.2 0.00 0.00 0.00 91 1014.6
20260901113329 27 340 1.6 3.2 0.00 0.00 0.00 91 1014.9
20260901112816 27 340 0.0 3.2 0.00 0.00 0.00 91 1014.9
20260901112312 27 340 1.6 1.6 0.00 0.00 0.00 91 1014.9
20260901111809 27 339 0.0 1.6 0.00 0.00 0.00 91 1014.9
20260901111302 27 339 1.6 1.6 0.00 0.00 0.00 91 1014.6
20260901110758 27 339 0.0 1.6 0.00 0.00 0.00 91 1014.6
20260901110202 27 339 0.0 1.6 0.00 0.00 0.00 91 1014.6
20260901105610 27 341 0.0 3.2 0.00 0.00 0.00 91 1014.6
20260901105107 27 341 0.0 3.2 0.00 0.00 0.00 91 1014.6
20260901104604 27 341 1.6 3.2 0.00 0.00 0.00 91 1014.6
20260901104101 27 346 1.6 3.2 0.00 0.00 0.00 91 1014.6
20260901103559 27 43 0.0 1.6 0.00 0.00 0.00 91 1014.6
20260901103025 27 43 0.0 1.6 0.00 0.00 0.00 91 1014.6
20260901102451 27 43 0.0 1.6 0.00 0.00 0.00 91 1014.6
20260901101930 27 43 1.6 1.6 0.00 0.00 0.00 91 1014.6
20260901101408 27 43 0.0 1.6 0.00 0.00 0.00 91 1014.6
20260901100846 27 43 1.6 1.6 0.00 0.00 0.00 91 1014.6
20260901100325 27 44 0.0 1.6 0.00 0.00 0.00 91 1014.6
20260901095803 27 98 1.6 1.6 0.00 0.00 0.00 91 1014.6
20260901095259 27 98 0.0 1.6 0.00 0.00 0.00 91 1014.6
20260901094756 27 97 1.6 1.6 0.00 0.00 0.00 91 1014.6
20260901094253 27 98 1.6 1.6 0.00 0.00 0.00 91 1014.6
20260901093750 27 98 0.0 3.2 0.00 0.00 0.00 91 1014.9
20260901093231 27 98 0.0 3.2 0.00 0.00 0.00 91 1014.9
20260901092728 27 98 0.0 3.2 0.00 0.00 0.00 92 1014.6
20260901092225 27 98 3.2 3.2 0.00 0.00 0.00 92 1014.9
20260901091722 27 97 0.0 1.6 0.00 0.00 0.00 92 1014.9
20260901091219 27 97 0.0 1.6 0.00 0.00 0.00 92 1014.9
20260901090717 27 97 0.0 1.6 0.00 0.00 0.00 92 1014.9
20260901090214 27 97 1.6 1.6 0.00 0.00 0.00 92 1014.9
20260901085711 27 97 0.0 0.0 0.00 0.00 0.00 92 1014.9
20260901085207 26 97 0.0 0.0 0.00 0.00 0.00 92 1014.9
20260901084704 26 97 0.0 0.0 0.00 0.00 0.00 91 1014.9
20260901084201 26 97 0.0 0.0 0.00 0.00 0.00 91 1014.9
20260901083659 26 97 0.0 0.0 0.00 0.00 0.00 91 1014.9
20260901083156 26 97 0.0 0.0 0.00 0.00 0.00 91 1014.9
20260901082653 27 97 0.0 0.0 0.00 0.00 0.00 91 1014.9
20260901082150 27 97 0.0 0.0 0.00 0.00 0.00 91 1014.9
20260901081648 27 97 0.0 0.0 0.00 0.00 0.00 91 1014.9
20260901081145 27 97 0.0 0.0 0.00 0.00 0.00 91 1014.9
20260901080611 27 97 0.0 0.0 0.00 0.00 0.00 90 1014.9
20260901080108 27 97 0.0 0.0 0.00 0.00 0.00 90 1014.9
20260901075531 27 97 0.0 0.0 0.00 0.00 0.00 90 1014.9
20260901075028 27 97 0.0 0.0 0.00 0.00 0.00 90 1014.9
20260901074525 27 97 0.0 0.0 0.00 0.00 0.00 90 1014.9
20260901074022 27 97 0.0 0.0 0.00 0.00 0.00 90 1014.9
20260901073501 27 97 0.0 0.0 0.00 0.00 0.00 90 1014.9
20260901072939 27 97 0.0 0.0 0.00 0.00 0.00 89 1014.9
20260901072416 27 97 0.0 0.0 0.00 0.00 0.00 89 1014.9
20260901071914 27 97 0.0 0.0 0.00 0.00 0.00 89 1014.9
20260901071401 27 97 0.0 0.0 0.00 0.00 0.00 89 1014.9
20260901070857 27 97 0.0 0.0 0.00 0.00 0.00 89 1015.2
20260901070348 27 97 0.0 0.0 0.00 0.00 0.00 89 1015.2
20260901065814 27 97 0.0 0.0 0.00 0.00 0.00 89 1015.2
20260901065311 27 97 0.0 0.0 0.00 0.00 0.00 89 1015.2
20260901064808 27 97 0.0 0.0 0.00 0.00 0.00 89 1015.2
20260901064305 27 97 0.0 0.0 0.00 0.00 0.00 89 1015.2
20260901063802 27 97 0.0 0.0 0.00 0.00 0.00 89 1015.2
20260901063300 27 97 0.0 0.0 0.00 0.00 0.00 89 1014.9
20260901062726 27 97 0.0 0.0 0.00 0.00 0.00 89 1014.9
20260901062204 27 97 0.0 0.0 0.00 0.00 0.00 89 1015.2
20260901061701 27 97 0.0 1.6 0.00 0.00 0.00 89 1015.2
20260901061158 27 97 0.0 1.6 0.00 0.00 0.00 89 1015.2
20260901060624 27 97 0.0 1.6 0.00 0.00 0.00 89 1015.2
20260901060121 27 97 0.0 0.0 0.00 0.00 0.00 89 1015.2
20260901055546 27 97 0.0 0.0 0.00 0.00 0.00 89 1015.2
20260901055043 27 97 0.0 0.0 0.00 0.00 0.00 89 1015.2
20260901054540 27 97 0.0 0.0 0.00 0.00 0.00 88 1015.2
20260901054036 27 97 0.0 0.0 0.00 0.00 0.00 88 1015.2
20260901053533 27 97 0.0 0.0 0.00 0.00 0.00 88 1015.2
20260901053030 27 97 0.0 0.0 0.00 0.00 0.00 88 1015.2
20260901052525 27 97 0.0 0.0 0.00 0.00 0.00 88 1015.2
20260901052022 27 97 0.0 0.0 0.00 0.00 0.00 88 1015.2
20260901051519 27 97 0.0 0.0 0.00 0.00 0.00 88 1015.2
20260901050957 27 97 0.0 0.0 0.00 0.00 0.00 87 1015.2
20260901050435 27 97 0.0 0.0 0.00 0.00 0.00 87 1015.2
20260901045932 27 97 0.0 0.0 0.00 0.00 0.00 87 1015.2
20260901045429 27 97 0.0 0.0 0.00 0.00 0.00 88 1015.2
20260901044855 27 97 0.0 0.0 0.00 0.00 0.00 88 1014.9
20260901044321 27 97 0.0 0.0 0.00 0.00 0.00 87 1014.9
20260901043818 27 97 0.0 0.0 0.00 0.00 0.00 87 1015.2
20260901043244 27 97 0.0 0.0 0.00 0.00 0.00 87 1015.2
20260901042741 27 97 0.0 0.0 0.00 0.00 0.00 87 1015.2
20260901042238 27 97 0.0 0.0 0.00 0.00 0.00 87 1015.2
20260901041645 27 97 0.0 0.0 0.00 0.00 0.00 87 1015.2
20260901041140 27 97 0.0 0.0 0.00 0.00 0.00 87 1015.2
20260901040606 27 97 0.0 0.0 0.00 0.00 0.00 87 1015.2
20260901040032 27 97 0.0 0.0 0.00 0.00 0.00 87 1015.2
20260901035528 27 97 0.0 0.0 0.00 0.00 0.00 86 1015.2
20260901034953 27 97 0.0 0.0 0.00 0.00 0.00 86 1014.9
20260901034450 27 97 0.0 0.0 0.00 0.00 0.00 86 1014.9
20260901033947 27 97 0.0 0.0 0.00 0.00 0.00 86 1014.9
20260901033444 28 97 0.0 0.0 0.00 0.00 0.00 86 1014.9
20260901032940 28 97 0.0 0.0 0.00 0.00 0.00 86 1015.2
20260901032405 28 97 0.0 0.0 0.00 0.00 0.00 86 1015.2
20260901031903 28 97 0.0 0.0 0.00 0.00 0.00 86 1014.9
20260901031400 28 97 0.0 0.0 0.00 0.00 0.00 86 1014.9
20260901030855 28 97 0.0 0.0 0.00 0.00 0.00 86 1014.9